WZZ24K EDDC-EPWA

Flight info

Callsign WZZ24K
Flight time 0h 58m
Altitude 31000
Route OSKAN9E OSKAN M748 OLBIK L735 GOVEN/N0457F350 L979 KELOD L980 ADVAB P150 BIMPA
Aircraft A20N/M-SDE2E3FGHIRWXY/LB1

Departure

Time 2026-04-30 20:10
Airport Dresden Airport (EDDC)

Arrival

Time 2026-04-30 21:08
Airport Warsaw Chopin Airport (EPWA)
Time Latitude Longitude Altitude Speed Heading
2026-04-30 19:58 51.13156 13.77010 739 ft 0 kts 131°
2026-04-30 20:04 51.13152 13.77018 739 ft 4 kts 131°
2026-04-30 20:05 51.13094 13.77010 743 ft 5 kts 212°
2026-04-30 20:05 51.13057 13.76955 744 ft 11 kts 223°
2026-04-30 20:05 51.12866 13.76690 744 ft 21 kts 220°
2026-04-30 20:06 51.12772 13.76563 747 ft 14 kts 229°
2026-04-30 20:06 51.12788 13.76467 746 ft 12 kts 293°
2026-04-30 20:06 51.12745 13.76326 746 ft 17 kts 220°
2026-04-30 20:06 51.12648 13.76201 749 ft 18 kts 219°
2026-04-30 20:07 51.12551 13.76071 752 ft 18 kts 222°
2026-04-30 20:07 51.12458 13.75939 759 ft 18 kts 221°
2026-04-30 20:07 51.12386 13.75704 762 ft 0 kts 292°
2026-04-30 20:08 51.12386 13.75701 761 ft 2 kts 292°
2026-04-30 20:08 51.12407 13.75619 762 ft 12 kts 291°
2026-04-30 20:08 51.12457 13.75499 765 ft 14 kts 309°
2026-04-30 20:08 51.12495 13.75494 765 ft 4 kts 44°
2026-04-30 20:09 51.12495 13.75496 765 ft 0 kts 44°
2026-04-30 20:10 51.12664 13.75741 758 ft 81 kts 41°
2026-04-30 20:10 51.13313 13.76629 748 ft 159 kts 40°
2026-04-30 20:10 51.14135 13.77841 1602 ft 161 kts 43°
2026-04-30 20:11 51.15838 13.80348 3484 ft 180 kts 41°
2026-04-30 20:11 51.16839 13.81703 4199 ft 198 kts 40°
2026-04-30 20:11 51.17949 13.83184 4909 ft 218 kts 41°
2026-04-30 20:12 51.21034 13.84791 6331 ft 262 kts 356°
2026-04-30 20:12 51.22890 13.84436 7343 ft 267 kts 356°
2026-04-30 20:12 51.24715 13.84087 8435 ft 267 kts 356°
2026-04-30 20:13 51.26593 13.83742 9523 ft 270 kts 357°
2026-04-30 20:13 51.28471 13.83412 10569 ft 272 kts 357°
2026-04-30 20:13 51.30408 13.82971 11165 ft 295 kts 350°
2026-04-30 20:13 51.32407 13.81728 11550 ft 323 kts 334°
2026-04-30 20:14 51.33659 13.80332 11910 ft 338 kts 323°
2026-04-30 20:14 51.36024 13.76940 13099 ft 344 kts 322°
2026-04-30 20:14 51.37831 13.74396 13929 ft 348 kts 325°
2026-04-30 20:14 51.39904 13.72480 14430 ft 342 kts 345°
2026-04-30 20:15 51.41433 13.71902 14643 ft 339 kts 358°
2026-04-30 20:15 51.43750 13.72253 15312 ft 334 kts 20°
2026-04-30 20:15 51.45775 13.73942 16297 ft 327 kts 39°
2026-04-30 20:15 51.47404 13.76492 17166 ft 328 kts 46°
2026-04-30 20:16 51.48979 13.79158 18033 ft 330 kts 47°
2026-04-30 20:16 51.50560 13.81836 18859 ft 331 kts 47°
2026-04-30 20:16 51.52163 13.84536 19542 ft 335 kts 46°
2026-04-30 20:16 51.53787 13.87258 20214 ft 339 kts 46°
2026-04-30 20:17 51.55427 13.89998 20883 ft 342 kts 46°
2026-04-30 20:17 51.57081 13.92762 21561 ft 345 kts 46°
2026-04-30 20:17 51.58755 13.95559 22203 ft 349 kts 46°
2026-04-30 20:17 51.60426 13.98356 22844 ft 353 kts 46°
2026-04-30 20:18 51.62152 14.01247 23502 ft 356 kts 45°
2026-04-30 20:18 51.63856 14.04105 24103 ft 360 kts 45°
2026-04-30 20:18 51.65617 14.07061 24648 ft 363 kts 45°
2026-04-30 20:18 51.67350 14.09975 25202 ft 365 kts 45°
2026-04-30 20:19 51.69109 14.12935 25741 ft 367 kts 45°
2026-04-30 20:19 51.70890 14.15935 26250 ft 370 kts 45°
2026-04-30 20:19 51.72673 14.18943 26761 ft 373 kts 45°
2026-04-30 20:19 51.74404 14.22070 27248 ft 377 kts 52°
2026-04-30 20:20 51.75715 14.25771 27713 ft 384 kts 65°
2026-04-30 20:20 51.76470 14.29939 28182 ft 390 kts 72°
2026-04-30 20:20 51.77078 14.34228 28618 ft 394 kts 73°
2026-04-30 20:20 51.77657 14.38572 29076 ft 396 kts 73°
2026-04-30 20:21 51.78235 14.42937 29497 ft 399 kts 73°
2026-04-30 20:21 51.78820 14.47334 29910 ft 401 kts 73°
2026-04-30 20:21 51.79413 14.51757 30314 ft 404 kts 73°
2026-04-30 20:21 51.80011 14.56209 30689 ft 406 kts 73°
2026-04-30 20:22 51.80611 14.60674 31045 ft 409 kts 73°
2026-04-30 20:22 51.81214 14.65185 31326 ft 411 kts 73°
2026-04-30 20:22 51.81815 14.69703 31409 ft 411 kts 73°
2026-04-30 20:23 51.83006 14.78725 31413 ft 410 kts 73°
2026-04-30 20:23 51.84191 14.87750 31413 ft 409 kts 73°
2026-04-30 20:24 51.85367 14.96756 31415 ft 409 kts 73°
2026-04-30 20:24 51.86534 15.05756 31412 ft 409 kts 73°
2026-04-30 20:25 51.88269 15.19239 31410 ft 407 kts 73°
2026-04-30 20:26 51.89988 15.32727 31409 ft 407 kts 73°
2026-04-30 20:26 51.91685 15.46184 31407 ft 406 kts 73°
2026-04-30 20:27 51.93920 15.64104 31406 ft 405 kts 73°
2026-04-30 20:28 51.96127 15.82021 31400 ft 404 kts 73°
2026-04-30 20:30 51.98837 16.04370 31403 ft 403 kts 73°
2026-04-30 20:31 52.02026 16.31158 31401 ft 402 kts 73°
2026-04-30 20:32 52.04311 16.53592 31401 ft 403 kts 76°
2026-04-30 20:33 52.05352 16.67168 31399 ft 404 kts 77°
2026-04-30 20:34 52.06292 16.80764 31400 ft 403 kts 77°
2026-04-30 20:35 52.07198 16.94310 31400 ft 403 kts 77°
2026-04-30 20:35 52.08093 17.07945 31397 ft 402 kts 77°
2026-04-30 20:36 52.08678 17.16980 31396 ft 402 kts 77°
2026-04-30 20:37 52.09542 17.30536 31394 ft 401 kts 77°
2026-04-30 20:37 52.10110 17.39570 31394 ft 401 kts 77°
2026-04-30 20:38 52.10669 17.48586 31394 ft 401 kts 77°
2026-04-30 20:38 52.11217 17.57547 31393 ft 400 kts 77°
2026-04-30 20:39 52.12031 17.71059 31390 ft 400 kts 77°
2026-04-30 20:40 52.12832 17.84609 31387 ft 399 kts 77°
2026-04-30 20:40 52.13351 17.93537 31374 ft 398 kts 77°
2026-04-30 20:41 52.13863 18.02480 31154 ft 394 kts 77°
2026-04-30 20:41 52.14114 18.06922 30634 ft 392 kts 77°
2026-04-30 20:41 52.14360 18.11305 29988 ft 388 kts 77°
2026-04-30 20:41 52.14605 18.15677 29265 ft 385 kts 77°
2026-04-30 20:42 52.14845 18.19988 28562 ft 381 kts 77°
2026-04-30 20:42 52.15082 18.24272 27875 ft 378 kts 78°
2026-04-30 20:42 52.15547 18.32736 26547 ft 372 kts 78°
2026-04-30 20:43 52.15777 18.36978 25898 ft 370 kts 78°
2026-04-30 20:43 52.16002 18.41142 25277 ft 368 kts 78°
2026-04-30 20:43 52.16221 18.45221 24656 ft 365 kts 78°
2026-04-30 20:44 52.16659 18.53471 23355 ft 361 kts 78°
2026-04-30 20:44 52.16873 18.57534 22691 ft 358 kts 78°
2026-04-30 20:44 52.17289 18.65519 21396 ft 353 kts 79°
2026-04-30 20:45 52.17701 18.73512 20124 ft 350 kts 79°
2026-04-30 20:45 52.17902 18.77457 19493 ft 348 kts 80°
2026-04-30 20:45 52.18101 18.81376 18915 ft 346 kts 80°
2026-04-30 20:46 52.17902 18.93059 17020 ft 348 kts 95°
2026-04-30 20:46 52.17444 18.96948 16412 ft 346 kts 95°
2026-04-30 20:47 52.16477 19.04604 15256 ft 343 kts 96°
2026-04-30 20:47 52.15980 19.08390 14698 ft 341 kts 97°
2026-04-30 20:48 52.14982 19.15905 13554 ft 337 kts 97°
2026-04-30 20:48 52.14652 19.18369 13164 ft 336 kts 97°
2026-04-30 20:48 52.14156 19.22077 12590 ft 334 kts 97°
2026-04-30 20:48 52.13663 19.25760 11998 ft 332 kts 97°
2026-04-30 20:49 52.13172 19.29417 11465 ft 330 kts 97°
2026-04-30 20:49 52.12684 19.33041 10909 ft 328 kts 97°
2026-04-30 20:49 52.12195 19.36659 10524 ft 322 kts 98°
2026-04-30 20:50 52.11268 19.43425 10372 ft 290 kts 97°
2026-04-30 20:50 52.10841 19.46540 10384 ft 280 kts 97°
2026-04-30 20:50 52.10417 19.49673 10376 ft 284 kts 97°
2026-04-30 20:50 52.09995 19.52790 10373 ft 282 kts 97°
2026-04-30 20:51 52.09568 19.55921 10375 ft 282 kts 97°
2026-04-30 20:51 52.08713 19.62152 10383 ft 283 kts 97°
2026-04-30 20:51 52.08282 19.65280 10373 ft 283 kts 97°
2026-04-30 20:52 52.07852 19.68392 10373 ft 283 kts 97°
2026-04-30 20:52 52.07426 19.71472 10377 ft 283 kts 97°
2026-04-30 20:52 52.06561 19.77701 10377 ft 283 kts 97°
2026-04-30 20:53 52.06120 19.80868 10378 ft 283 kts 97°
2026-04-30 20:53 52.05688 19.83966 10396 ft 283 kts 97°
2026-04-30 20:53 52.05249 19.87105 10381 ft 283 kts 97°
2026-04-30 20:54 52.04375 19.93333 10390 ft 283 kts 97°
2026-04-30 20:54 52.03938 19.96444 10378 ft 283 kts 97°
2026-04-30 20:54 52.03499 19.99561 10380 ft 283 kts 97°
2026-04-30 20:55 52.02622 20.05760 10082 ft 280 kts 97°
2026-04-30 20:55 52.02185 20.08838 9681 ft 280 kts 98°
2026-04-30 20:55 52.01749 20.11911 9258 ft 279 kts 98°
2026-04-30 20:56 52.00880 20.18009 8407 ft 276 kts 98°
2026-04-30 20:56 52.00451 20.21010 8003 ft 275 kts 98°
2026-04-30 20:56 51.99588 20.27028 7217 ft 273 kts 98°
2026-04-30 20:57 51.99160 20.30004 7046 ft 273 kts 98°
2026-04-30 20:57 51.98728 20.33015 7006 ft 273 kts 98°
2026-04-30 20:57 51.98296 20.36003 6997 ft 272 kts 98°
2026-04-30 20:58 51.97434 20.41958 6468 ft 270 kts 98°
2026-04-30 20:58 51.97005 20.44915 6088 ft 269 kts 98°
2026-04-30 20:58 51.96571 20.47898 5679 ft 268 kts 98°
2026-04-30 20:58 51.96142 20.50843 5290 ft 267 kts 98°
2026-04-30 20:59 51.95297 20.56641 4501 ft 265 kts 99°
2026-04-30 20:59 51.94869 20.59581 4138 ft 263 kts 100°
2026-04-30 21:00 51.94026 20.65329 4002 ft 265 kts 100°
2026-04-30 21:00 51.93169 20.71132 3999 ft 265 kts 100°
2026-04-30 21:01 51.92309 20.76939 3999 ft 265 kts 100°
2026-04-30 21:01 51.91881 20.79832 4002 ft 265 kts 100°
2026-04-30 21:01 51.91016 20.85644 3999 ft 265 kts 101°
2026-04-30 21:02 51.90582 20.88548 3998 ft 265 kts 101°
2026-04-30 21:02 51.90288 20.91468 3958 ft 260 kts 84°
2026-04-30 21:02 51.90697 20.94274 3681 ft 256 kts 67°
2026-04-30 21:02 51.91314 20.96974 3297 ft 256 kts 66°
2026-04-30 21:03 51.91940 20.99666 3048 ft 254 kts 66°
2026-04-30 21:03 51.92564 21.02333 3000 ft 257 kts 66°
2026-04-30 21:03 51.93196 21.05031 2999 ft 256 kts 66°
2026-04-30 21:03 51.93836 21.07768 3000 ft 256 kts 66°
2026-04-30 21:04 51.94769 21.10164 3005 ft 251 kts 40°
2026-04-30 21:04 51.96273 21.11496 2998 ft 248 kts 12°
2026-04-30 21:04 51.99654 21.11236 2999 ft 246 kts 340°
2026-04-30 21:05 52.01224 21.10110 3000 ft 247 kts 333°
2026-04-30 21:05 52.02733 21.08796 2995 ft 243 kts 332°
2026-04-30 21:05 52.04217 21.07511 2953 ft 247 kts 332°
2026-04-30 21:05 52.05702 21.06214 2616 ft 232 kts 332°
2026-04-30 21:06 52.07058 21.05031 2304 ft 211 kts 332°
2026-04-30 21:06 52.08279 21.03966 2064 ft 186 kts 332°
2026-04-30 21:06 52.09355 21.03028 1795 ft 165 kts 332°
2026-04-30 21:06 52.10307 21.02196 1584 ft 146 kts 332°
2026-04-30 21:07 52.11210 21.01408 1383 ft 144 kts 332°
2026-04-30 21:07 52.12048 21.00676 1170 ft 130 kts 331°
2026-04-30 21:07 52.12828 20.99994 998 ft 128 kts 331°
2026-04-30 21:07 52.13608 20.99313 814 ft 127 kts 331°
2026-04-30 21:08 52.14387 20.98644 631 ft 127 kts 330°
2026-04-30 21:08 52.15152 20.97955 398 ft 124 kts 330°
2026-04-30 21:08 52.15892 20.97303 338 ft 103 kts 331°
2026-04-30 21:08 52.16287 20.96959 334 ft 46 kts 331°
2026-04-30 21:09 52.16564 20.96709 336 ft 45 kts 331°
2026-04-30 21:09 52.16850 20.96518 336 ft 45 kts 351°
2026-04-30 21:09 52.17072 20.96545 334 ft 22 kts 37°
2026-04-30 21:09 52.17086 20.96567 335 ft 0 kts 49°
2026-04-30 21:10 52.17111 20.96620 335 ft 11 kts 60°
2026-04-30 21:10 52.17159 20.96774 335 ft 20 kts 67°
2026-04-30 21:10 52.17131 20.96871 334 ft 2 kts 194°
2026-04-30 21:11 52.17111 20.96827 336 ft 0 kts 240°